Wahpeton, MN

6:41 AM CST on November 19, 2019 (GMT -0600)
Stern

Weather History for KBWP - September, 2019

Change the Weather History Date:

Friday, September 6, 2019

  Actual Average (WUND) Record (WUND)
Temperature  
Mean Temperature 62 °F -  
Max Temperature 73 °F - - (-1)
Min Temperature 50 °F - - (-1)
Degree Days  
Heating Degree Days 4    
Growing Degree Days 12 (Base 50)    
Moisture  
Dew Point 52 °F    
Average Humidity 74    
Maximum Humidity 94    
Minimum Humidity 43    
Precipitation  
Precipitation 0.00 in - - ()
Sea Level Pressure  
Sea Level Pressure 30.13 in    
Wind  
Wind Speed 6 mph ()    
Max Wind Speed 15 mph    
Max Gust Speed 20 mph    
Visibility 9.4 miles    
Events      
Averages and records for this station are not official NWS values.
T = Trace of Precipitation, MM = Missing Value Source: Averaged Metar Reports

Daily Weather History Graph

Daily Weather History Graph

Search for Another Location

Airport or City:

Astronomy

Sep. 06, 2019 Rise Set
Actual Time 6:52 AM CDT 7:55 PM CDT
Civil Twilight 6:22 AM CDT 8:26 PM CDT
Nautical Twilight 5:45 AM CDT 9:03 PM CDT
Astronomical Twilight 5:06 AM CDT 9:41 PM CDT
Moon 3:28 PM CDT (9/6) No Moon Set
Length of Visible Light 14h 04m
Length of Day
13h 02m
First Quarter, 56% of the Moon is Illuminated
Sep 6
First Quarter
Sep 13
Full
Sep 21
Last Quarter
Sep 28
New
Oct 5
First Quarter

Hourly Weather History & Observations

Time (CDT) Temp. Dew Point Humidity Pressure Visibility Wind Dir Wind Speed Gust Speed Precip Events Conditions
12:15 AM 59.0 °F 53.6 °F 82% 30.08 in 10.0 mi NNW 3.5 mph - N/A   Unknown
12:35 AM 55.4 °F 51.8 °F 88% 30.08 in 10.0 mi NW 3.5 mph - N/A   Unknown
12:55 AM 51.8 °F 50.0 °F 94% 30.09 in 10.0 mi West 6.9 mph - N/A   Unknown
1:15 AM 53.6 °F 50.0 °F 88% 30.10 in 10.0 mi West 6.9 mph - N/A   Unknown
1:35 AM 51.8 °F 50.0 °F 94% 30.11 in 10.0 mi WNW 5.8 mph - N/A   Unknown
1:55 AM 51.8 °F 50.0 °F 94% 30.11 in 10.0 mi West 4.6 mph - N/A   Unknown
2:15 AM 51.8 °F 50.0 °F 94% 30.12 in 10.0 mi West 5.8 mph - N/A   Unknown
2:35 AM 51.8 °F 50.0 °F 94% 30.12 in 10.0 mi WNW 3.5 mph - N/A   Unknown
2:55 AM 51.8 °F 50.0 °F 94% 30.12 in 10.0 mi WNW 3.5 mph - N/A   Unknown
3:15 AM 51.8 °F 50.0 °F 94% 30.12 in 7.0 mi West 3.5 mph - N/A   Unknown
3:35 AM 51.8 °F 50.0 °F 94% 30.12 in 7.0 mi WNW 4.6 mph - N/A   Unknown
3:55 AM 50.0 °F 48.2 °F 94% 30.12 in 7.0 mi WNW 3.5 mph - N/A   Unknown
4:15 AM 51.8 °F 50.0 °F 94% 30.12 in 7.0 mi WNW 4.6 mph - N/A   Unknown
4:35 AM 51.8 °F 50.0 °F 94% 30.12 in 10.0 mi WNW 5.8 mph - N/A   Unknown
4:55 AM 51.8 °F 50.0 °F 94% 30.12 in 10.0 mi WNW 4.6 mph - N/A   Unknown
5:15 AM 51.8 °F 50.0 °F 94% 30.12 in 10.0 mi NW 4.6 mph - N/A   Unknown
5:35 AM 50.0 °F 48.2 °F 94% 30.12 in 7.0 mi WNW 5.8 mph - N/A   Unknown
5:55 AM 50.0 °F 46.4 °F 87% 30.13 in 5.0 mi West 5.8 mph - N/A   Unknown
6:15 AM 50.0 °F 48.2 °F 94% 30.13 in 7.0 mi Calm Calm - N/A   Unknown
6:35 AM 50.0 °F 48.2 °F 94% 30.14 in 1.5 mi West 3.5 mph - N/A   Unknown
6:55 AM 50.0 °F 46.4 °F 87% 30.14 in 5.0 mi West 5.8 mph - N/A   Unknown
7:15 AM 50.0 °F 46.4 °F 87% 30.15 in 5.0 mi Calm Calm - N/A   Unknown
7:35 AM 51.8 °F 50.0 °F 94% 30.15 in 10.0 mi West 4.6 mph - N/A   Unknown
7:55 AM 51.8 °F 50.0 °F 94% 30.16 in 7.0 mi Calm Calm - N/A   Unknown
8:15 AM 53.6 °F 51.8 °F 94% 30.16 in 10.0 mi Calm Calm - N/A   Unknown
8:35 AM 57.2 °F 55.4 °F 94% 30.16 in 10.0 mi West 3.5 mph - N/A   Unknown
8:55 AM 59.0 °F 55.4 °F 88% 30.17 in 10.0 mi West 6.9 mph - N/A   Unknown
9:15 AM 60.8 °F 57.2 °F 88% 30.17 in 10.0 mi WNW 8.1 mph - N/A   Unknown
9:35 AM 62.6 °F 57.2 °F 82% 30.17 in 10.0 mi West 10.4 mph - N/A   Unknown
9:55 AM 64.4 °F 59.0 °F 83% 30.17 in 10.0 mi West 10.4 mph - N/A   Unknown
10:15 AM 68.0 °F 59.0 °F 73% 30.16 in 10.0 mi West 9.2 mph - N/A   Unknown
10:35 AM 68.0 °F 59.0 °F 73% 30.16 in 10.0 mi West 6.9 mph - N/A   Unknown
10:55 AM 69.8 °F 59.0 °F 68% 30.16 in 10.0 mi WNW 10.4 mph - N/A   Unknown
11:15 AM 69.8 °F 59.0 °F 68% 30.16 in 10.0 mi NW 10.4 mph - N/A   Unknown
11:35 AM 69.8 °F 59.0 °F 68% 30.16 in 10.0 mi NNW 8.1 mph - N/A   Unknown
11:55 AM 69.8 °F 59.0 °F 68% 30.16 in 10.0 mi NW 11.5 mph - N/A   Unknown
12:15 PM 71.6 °F 59.0 °F 64% 30.16 in 10.0 mi NW 11.5 mph - N/A   Unknown
12:35 PM 69.8 °F 57.2 °F 64% 30.16 in 10.0 mi NNW 11.5 mph - N/A   Unknown
12:55 PM 71.6 °F 57.2 °F 60% 30.15 in 10.0 mi NW 11.5 mph 16.1 mph N/A   Unknown
1:15 PM 71.6 °F 57.2 °F 60% 30.15 in 10.0 mi NW 9.2 mph - N/A   Unknown
1:35 PM 71.6 °F 55.4 °F 57% 30.15 in 10.0 mi NW 9.2 mph 17.3 mph N/A   Unknown
1:55 PM 71.6 °F 55.4 °F 57% 30.15 in 10.0 mi NNW 11.5 mph 18.4 mph N/A   Unknown
2:15 PM 73.4 °F 55.4 °F 53% 30.14 in 10.0 mi WNW 15.0 mph 19.6 mph N/A   Unknown
2:35 PM 73.4 °F 55.4 °F 53% 30.14 in 10.0 mi NNW 12.7 mph 19.6 mph N/A   Unknown
2:55 PM 73.4 °F 53.6 °F 50% 30.14 in 10.0 mi NNW 12.7 mph 18.4 mph N/A   Unknown
3:35 PM 73.4 °F 53.6 °F 50% 30.13 in 10.0 mi NNW 12.7 mph 19.6 mph N/A   Unknown
3:55 PM 73.4 °F 53.6 °F 50% 30.13 in 10.0 mi NW 11.5 mph 18.4 mph N/A   Unknown
4:15 PM 73.4 °F 51.8 °F 47% 30.13 in 10.0 mi NNW 13.8 mph 18.4 mph N/A   Unknown
4:35 PM 71.6 °F 51.8 °F 50% 30.13 in 10.0 mi NNW 15.0 mph 19.6 mph N/A   Unknown
4:55 PM 71.6 °F 50.0 °F 46% 30.13 in 10.0 mi NNW 13.8 mph 17.3 mph N/A   Unknown
5:15 PM 71.6 °F 50.0 °F 46% 30.13 in 10.0 mi NNW 11.5 mph 17.3 mph N/A   Unknown
5:35 PM 71.6 °F 50.0 °F 46% 30.12 in 10.0 mi NNW 11.5 mph - N/A   Unknown
5:55 PM 71.6 °F 50.0 °F 46% 30.12 in 10.0 mi North 12.7 mph 17.3 mph N/A   Unknown
6:15 PM 71.6 °F 48.2 °F 43% 30.12 in 10.0 mi North 9.2 mph - N/A   Unknown
6:35 PM 71.6 °F 48.2 °F 43% 30.12 in 10.0 mi North 10.4 mph - N/A   Unknown
6:55 PM 69.8 °F 50.0 °F 49% 30.12 in 10.0 mi NNW 6.9 mph - N/A   Unknown
7:15 PM 68.0 °F 50.0 °F 52% 30.12 in 10.0 mi NNW 9.2 mph - N/A   Unknown
7:35 PM 66.2 °F 50.0 °F 56% 30.13 in 10.0 mi NNW 4.6 mph - N/A   Unknown
7:55 PM 64.4 °F 50.0 °F 59% 30.12 in 10.0 mi North 5.8 mph - N/A   Unknown
8:15 PM 64.4 °F 50.0 °F 59% 30.13 in 10.0 mi North 4.6 mph - N/A   Unknown
8:35 PM 62.6 °F 50.0 °F 63% 30.12 in 10.0 mi North 4.6 mph - N/A   Unknown
8:55 PM 62.6 °F 50.0 °F 63% 30.13 in 10.0 mi Calm Calm - N/A   Unknown
9:15 PM 59.0 °F 50.0 °F 72% 30.13 in 10.0 mi Calm Calm - N/A   Unknown
9:35 PM 59.0 °F 50.0 °F 72% 30.13 in 10.0 mi Calm Calm - N/A   Unknown
9:55 PM 57.2 °F 51.8 °F 82% 30.13 in 10.0 mi Calm Calm - N/A   Unknown
10:15 PM 55.4 °F 51.8 °F 88% 30.13 in 10.0 mi Calm Calm - N/A   Unknown
10:35 PM 55.4 °F 50.0 °F 82% 30.13 in 10.0 mi Calm Calm - N/A   Unknown
10:55 PM 53.6 °F 50.0 °F 88% 30.13 in 10.0 mi Calm Calm - N/A   Unknown
11:15 PM 55.4 °F 50.0 °F 82% 30.13 in 10.0 mi Calm Calm - N/A   Unknown
11:35 PM 53.6 °F 50.0 °F 88% 30.14 in 10.0 mi Calm Calm - N/A   Unknown
11:55 PM 51.8 °F 48.2 °F 88% 30.14 in 10.0 mi Calm Calm - N/A   Unknown